User: anonymous   Login
Location: *
(44.1392°N, 4.8079°E)
Time: 17:01:37
(UTC+00:00)
Language:

CZ-3B R/B - Orbit

View from above orbital plane
View from above orbital plane
View from above satellite
View from above satellite

Ground track
Ground track

The orbit data is extracted from the following two-line orbital elements,

1 43649U 18078C   21258.93527166  .00000523  00000-0  29822-3 0  9993
2 43649  54.8674 137.6652 5574523 161.5435 231.8351  4.62718803 48732
Epoch (UTC): 15 September 2021 22:26:47
Eccentricity: 0.5574523
inclination: 54.8674°
perigee height: 354 km
apogee height: 17314 km
right ascension of ascending node: 137.6652°
argument of perigee: 161.5435°
revolutions per day: 4.62718803
mean anomaly at epoch: 231.8351°
orbit number at epoch: 4873

The dashed part of the orbit path shows where the satellite is in the earth's shadow,  

DLR